DW6325 Weather Reports


Display with metric or nautical units.
time (UTC)temp
F
wind
direction
speed
MPH
gust
MPH
rain 1hr
in
rain 24hr
in
rain mn
in
humidity
%
barometer
mb
20190916201705 69 232 2.0 9.0 0.00 0.00 0.00 50 1015.5
20190916201204 70 224 1.0 9.0 0.00 0.00 0.00 50 1015.7
20190916200704 70 91 1.0 9.0 0.00 0.00 0.00 51 1015.7
20190916200205 70 270 2.0 5.0 0.00 0.00 0.00 50 1015.7
20190916195704 70 229 2.0 5.0 0.00 0.00 0.00 51 1015.7
20190916195204 70 294 1.0 5.0 0.00 0.00 0.00 51 1015.8
20190916194704 70 302 2.0 5.0 0.00 0.00 0.00 51 1015.8
20190916194204 70 217 2.0 5.0 0.00 0.00 0.00 51 1015.8
20190916193704 70 276 1.0 5.0 0.00 0.00 0.00 51 1015.8
20190916193204 70 295 1.0 5.0 0.00 0.00 0.00 50 1015.7
20190916192704 71 248 2.0 5.0 0.00 0.00 0.00 50 1015.8
20190916192205 71 207 1.0 6.0 0.00 0.00 0.00 50 1015.9
20190916191705 71 215 2.0 8.0 0.00 0.00 0.00 50 1015.9
20190916191204 70 252 2.0 8.0 0.00 0.00 0.00 50 1015.9
20190916190704 71 224 2.0 8.0 0.00 0.00 0.00 49 1015.8
20190916190204 71 156 2.0 7.0 0.00 0.00 0.00 49 1015.8
20190916185704 70 326 2.0 7.0 0.00 0.00 0.00 51 1015.9
20190916185205 70 315 2.0 7.0 0.00 0.00 0.00 50 1015.9
20190916184705 70 254 2.0 7.0 0.00 0.00 0.00 51 1015.9
20190916184205 70 253 2.0 7.0 0.00 0.00 0.00 51 1015.9
20190916183705 70 241 2.0 6.0 0.00 0.00 0.00 51 1016.0
20190916183204 70 211 2.0 6.0 0.00 0.00 0.00 51 1016.0
20190916182704 70 186 1.0 5.0 0.00 0.00 0.00 51 1016.0
20190916182205 69 255 2.0 6.0 0.00 0.00 0.00 53 1016.1
20190916181704 69 352 2.0 6.0 0.00 0.00 0.00 51 1016.1
20190916181205 69 235 2.0 6.0 0.00 0.00 0.00 51 1016.1
20190916180704 69 25 2.0 7.0 0.00 0.00 0.00 54 1016.1
20190916180205 69 232 1.0 7.0 0.00 0.00 0.00 52 1016.3
20190916175705 69 176 2.0 7.0 0.00 0.00 0.00 53 1016.2
20190916175206 69 224 2.0 9.0 0.00 0.00 0.00 51 1016.2
20190916174704 69 204 2.0 9.0 0.00 0.00 0.00 53 1016.4
20190916174204 69 29 2.0 9.0 0.00 0.00 0.00 52 1016.3
20190916173705 69 298 2.0 7.0 0.00 0.00 0.00 52 1016.5
20190916173204 69 359 2.0 8.0 0.00 0.00 0.00 51 1016.5
20190916172705 69 329 2.0 8.0 0.00 0.00 0.00 51 1016.4
20190916172204 69 33 2.0 8.0 0.00 0.00 0.00 50 1016.5
20190916171704 69 356 2.0 7.0 0.00 0.00 0.00 52 1016.4
20190916171204 69 343 2.0 14.0 0.00 0.00 0.00 52 1016.4
20190916170704 69 97 2.0 14.0 0.00 0.00 0.00 51 1016.5
20190916170204 69 285 2.0 10.0 0.00 0.00 0.00 52 1016.6
20190916165705 69 300 2.0 10.0 0.00 0.00 0.00 53 1016.5
20190916165205 69 307 2.0 7.0 0.00 0.00 0.00 50 1016.6
20190916164704 69 356 3.0 10.0 0.00 0.00 0.00 53 1016.6
20190916164204 69 183 3.0 10.0 0.00 0.00 0.00 51 1016.6
20190916163704 69 308 3.0 10.0 0.00 0.00 0.00 52 1016.7
20190916163205 69 260 3.0 8.0 0.00 0.00 0.00 52 1016.8
20190916162704 69 242 3.0 8.0 0.00 0.00 0.00 52 1016.9
20190916162205 69 19 3.0 7.0 0.00 0.00 0.00 53 1016.9
20190916161705 68 271 3.0 7.0 0.00 0.00 0.00 53 1016.8
20190916161204 69 195 2.0 7.0 0.00 0.00 0.00 51 1016.9
20190916160705 69 358 3.0 6.0 0.00 0.00 0.00 51 1016.9
20190916160205 69 46 3.0 6.0 0.00 0.00 0.00 50 1017.0
20190916155705 70 331 2.0 6.0 0.00 0.00 0.00 51 1017.1
20190916155205 69 250 2.0 6.0 0.00 0.00 0.00 52 1017.1
20190916154704 68 300 2.0 8.0 0.00 0.00 0.00 53 1017.2
20190916154205 68 317 3.0 8.0 0.00 0.00 0.00 53 1017.3
20190916153705 68 201 3.0 11.0 0.00 0.00 0.00 53 1017.3
20190916153205 68 44 2.0 11.0 0.00 0.00 0.00 51 1017.3
20190916152704 68 11 2.0 11.0 0.00 0.00 0.00 53 1017.5
20190916152205 69 165 2.0 7.0 0.00 0.00 0.00 52 1017.6
20190916151704 68 338 2.0 7.0 0.00 0.00 0.00 53 1017.5
20190916151205 68 274 2.0 7.0 0.00 0.00 0.00 53 1017.6
20190916150705 68 343 2.0 8.0 0.00 0.00 0.00 56 1017.7
20190916150204 67 257 2.0 8.0 0.00 0.00 0.00 56 1017.7
20190916145704 67 242 2.0 8.0 0.00 0.00 0.00 56 1017.8
20190916145204 66 25 2.0 5.0 0.00 0.00 0.00 58 1017.8
20190916144705 66 269 2.0 7.0 0.00 0.00 0.00 59 1017.9
20190916144204 65 38 2.0 7.0 0.00 0.00 0.00 59 1018.0
20190916143705 64 269 2.0 7.0 0.00 0.00 0.00 60 1018.0
20190916143204 63 345 2.0 7.0 0.00 0.00 0.00 60 1018.1
20190916142704 63 27 2.0 7.0 0.00 0.00 0.00 63 1018.2
20190916142204 62 218 2.0 7.0 0.00 0.00 0.00 63 1018.2
20190916141705 62 357 1.0 7.0 0.00 0.00 0.00 62 1018.2
20190916141204 61 175 1.0 5.0 0.00 0.00 0.00 64 1018.3
20190916140704 61 258 1.0 5.0 0.00 0.00 0.00 64 1018.3
20190916140205 61 304 2.0 5.0 0.00 0.00 0.00 64 1018.5
20190916135705 60 332 2.0 5.0 0.00 0.00 0.00 65 1018.4
20190916135204 60 273 2.0 5.0 0.00 0.00 0.00 66 1018.6
20190916134704 60 266 1.0 5.0 0.00 0.00 0.00 66 1018.5
20190916134204 60 253 1.0 5.0 0.00 0.00 0.00 67 1018.6
20190916133704 60 224 1.0 6.0 0.00 0.00 0.00 67 1018.6
20190916133205 60 227 1.0 6.0 0.00 0.00 0.00 68 1018.5
20190916132704 59 316 1.0 6.0 0.00 0.00 0.00 69 1018.4
20190916132205 59 307 1.0 3.0 0.00 0.00 0.00 70 1018.5
20190916131704 59 271 1.0 4.0 0.00 0.00 0.00 70 1018.6
20190916131205 59 78 1.0 4.0 0.00 0.00 0.00 69 1018.5
20190916130704 59 219 1.0 4.0 0.00 0.00 0.00 69 1018.5
20190916130204 59 297 1.0 5.0 0.00 0.00 0.00 69 1018.5
20190916125704 59 149 1.0 5.0 0.00 0.00 0.00 70 1018.6
20190916125204 58 233 1.0 5.0 0.00 0.01 0.00 71 1018.5
20190916124705 58 235 1.0 4.0 0.00 0.01 0.00 70 1018.5
20190916124204 58 240 1.0 5.0 0.00 0.01 0.00 71 1018.6
20190916123705 58 8 1.0 5.0 0.00 0.01 0.00 72 1018.6
20190916123205 58 277 1.0 4.0 0.00 0.01 0.00 73 1018.6
20190916122704 58 12 1.0 4.0 0.00 0.01 0.00 74 1018.6
20190916122205 57 231 0.0 2.0 0.00 0.01 0.00 74 1018.6
20190916121704 57 266 0.0 2.0 0.00 0.01 0.00 75 1018.6
20190916121204 57 266 0.0 2.0 0.00 0.01 0.00 76 1018.6
20190916120704 56 240 0.0 2.0 0.00 0.01 0.00 77 1018.7
20190916120204 56 214 0.0 2.0 0.00 0.01 0.00 78 1018.7
20190916115704 56 214 0.0 2.0 0.00 0.01 0.00 79 1018.7
20190916115205 56 215 0.0 1.0 0.00 0.01 0.00 78 1018.6
20190916114704 55 215 0.0 1.0 0.00 0.01 0.00 79 1018.6
20190916114204 55 215 0.0 0.0 0.00 0.01 0.00 79 1018.5
20190916113705 55 215 0.0 0.0 0.00 0.01 0.00 80 1018.5
20190916113204 55 215 0.0 0.0 0.00 0.01 0.00 81 1018.5
20190916112704 55 215 0.0 1.0 0.00 0.01 0.00 81 1018.4
20190916112204 55 215 0.0 1.0 0.00 0.01 0.00 82 1018.4
20190916111705 55 214 0.0 1.0 0.00 0.01 0.00 82 1018.4
20190916111204 55 215 0.0 1.0 0.00 0.01 0.00 82 1018.3
20190916110704 55 215 0.0 1.0 0.00 0.01 0.00 82 1018.1
20190916110205 55 215 0.0 0.0 0.00 0.01 0.00 82 1018.1
20190916105704 55 214 0.0 2.0 0.00 0.01 0.00 80 1018.0
20190916105205 55 215 0.0 2.0 0.00 0.01 0.00 78 1018.1
20190916104704 55 215 0.0 2.0 0.00 0.01 0.00 77 1018.0
20190916104204 55 238 0.0 1.0 0.00 0.01 0.00 76 1017.9
20190916103705 55 236 0.0 1.0 0.00 0.01 0.00 76 1017.8
20190916103204 55 236 0.0 1.0 0.00 0.01 0.00 76 1017.9
20190916102705 55 236 0.0 2.0 0.00 0.01 0.00 77 1017.8
20190916102205 55 236 0.0 2.0 0.00 0.01 0.00 77 1017.8
20190916101704 55 228 0.0 2.0 0.00 0.01 0.00 77 1017.8
20190916101204 55 228 0.0 2.0 0.00 0.01 0.00 78 1017.7
20190916100705 55 222 0.0 1.0 0.00 0.01 0.00 80 1017.6
20190916100204 55 236 0.0 1.0 0.00 0.01 0.00 83 1017.6
20190916095705 56 236 0.0 1.0 0.00 0.01 0.00 82 1017.6
20190916095204 56 236 0.0 1.0 0.00 0.01 0.00 79 1017.5
20190916094704 56 236 0.0 1.0 0.00 0.01 0.00 79 1017.4
20190916094204 56 236 0.0 1.0 0.00 0.01 0.00 78 1017.4
20190916093704 56 236 0.0 1.0 0.00 0.01 0.00 78 1017.3
20190916093205 56 236 0.0 1.0 0.00 0.01 0.00 78 1017.3
20190916092704 56 250 0.0 1.0 0.00 0.01 0.00 79 1017.3
20190916092205 56 250 0.0 1.0 0.00 0.01 0.00 79 1017.3
20190916091704 56 250 0.0 1.0 0.00 0.01 0.00 80 1017.3
20190916091204 56 250 0.0 1.0 0.00 0.01 0.00 81 1017.2
20190916090705 57 250 0.0 1.0 0.00 0.01 0.00 79 1017.1
20190916085704 57 222 0.0 2.0 0.00 0.01 0.00 80 1017.2
20190916085205 57 222 0.0 1.0 0.00 0.01 0.00 80 1017.2
20190916084705 57 222 0.0 1.0 0.00 0.01 0.00 80 1017.2
20190916084204 57 222 0.0 1.0 0.00 0.01 0.00 80 1017.2
20190916083704 57 222 0.0 1.0 0.00 0.01 0.00 81 1017.3
20190916083204 57 222 0.0 3.0 0.00 0.01 0.00 81 1017.1
20190916082704 58 222 0.0 3.0 0.00 0.01 0.00 80 1017.0
20190916082206 58 221 0.0 1.0 0.00 0.01 0.00 79 1017.0
20190916081704 58 170 0.0 2.0 0.00 0.01 0.00 79 1017.2
20190916081204 58 58 0.0 2.0 0.00 0.01 0.00 80 1017.3
20190916080704 58 58 0.0 2.0 0.00 0.01 0.00 79 1017.2
20190916080205 58 58 0.0 3.0 0.00 0.01 0.00 79 1017.0
20190916075704 58 214 0.0 3.0 0.00 0.01 0.00 80 1017.1
20190916075205 58 232 0.0 3.0 0.00 0.01 0.00 80 1017.0
20190916074704 58 228 0.0 1.0 0.00 0.01 0.00 80 1016.9
20190916074204 58 215 0.0 1.0 0.00 0.01 0.00 81 1016.8
20190916073704 58 215 0.0 1.0 0.00 0.01 0.00 81 1016.8
20190916073205 58 298 0.0 2.0 0.00 0.01 0.00 82 1016.8
20190916072704 57 277 0.0 2.0 0.00 0.01 0.00 83 1016.6
20190916072205 57 287 0.0 2.0 0.00 0.01 0.00 84 1016.5
20190916071704 57 212 0.0 2.0 0.00 0.01 0.00 85 1016.5
20190916071204 57 212 0.0 1.0 0.00 0.01 0.00 86 1016.5
20190916070705 56 214 0.0 1.0 0.00 0.01 0.00 86 1016.5
20190916070204 56 214 0.0 0.0 0.00 0.01 0.00 87 1016.5
20190916065704 56 215 0.0 0.0 0.00 0.01 0.00 87 1016.4
20190916065205 56 215 0.0 0.0 0.00 0.01 0.00 87 1016.5
20190916064705 56 215 0.0 0.0 0.00 0.01 0.00 87 1016.3
20190916064204 56 215 0.0 1.0 0.00 0.01 0.00 87 1016.4
20190916063704 56 215 0.0 1.0 0.00 0.01 0.00 86 1016.4
20190916063204 56 215 0.0 1.0 0.00 0.01 0.00 87 1016.4
20190916062704 56 215 0.0 1.0 0.00 0.01 0.00 87 1016.4
20190916062205 56 215 1.0 1.0 0.00 0.01 0.00 87 1016.3
20190916061704 56 215 1.0 1.0 0.00 0.01 0.00 87 1016.4
20190916061204 56 215 0.0 1.0 0.00 0.01 0.00 87 1016.5
20190916060705 56 214 0.0 1.0 0.00 0.01 0.00 88 1016.5
20190916060204 56 215 0.0 1.0 0.00 0.01 0.00 87 1016.4
20190916055704 56 215 0.0 1.0 0.00 0.01 0.00 87 1016.4
20190916055205 56 215 0.0 1.0 0.00 0.01 0.00 86 1016.5
20190916054704 57 208 0.0 1.0 0.00 0.01 0.00 86 1016.6
20190916054204 57 208 0.0 1.0 0.00 0.01 0.00 86 1016.7
20190916053704 57 209 0.0 1.0 0.00 0.01 0.00 85 1016.8
20190916053204 58 208 0.0 1.0 0.00 0.01 0.00 84 1016.7
20190916052704 58 208 0.0 1.0 0.00 0.01 0.00 84 1016.7
20190916052204 58 208 0.0 1.0 0.00 0.01 0.00 83 1016.6
20190916051704 59 209 0.0 1.0 0.00 0.01 0.00 83 1016.7
20190916051205 59 208 0.0 1.0 0.00 0.01 0.00 82 1016.7
20190916050704 59 208 0.0 1.0 0.00 0.01 0.00 82 1016.7
20190916050205 60 208 0.0 1.0 0.00 0.01 0.00 81 1016.7
20190916045704 60 209 0.0 1.0 0.00 0.01 0.00 80 1016.7
20190916045205 60 208 0.0 1.0 0.00 0.01 0.00 80 1016.7
20190916044704 60 209 0.0 1.0 0.00 0.01 0.00 80 1016.6
20190916044204 59 204 0.0 1.0 0.00 0.01 0.00 81 1016.6
20190916043704 59 204 1.0 1.0 0.00 0.01 0.00 82 1016.6
20190916043204 58 184 0.0 1.0 0.00 0.01 0.00 82 1016.8
20190916042704 59 184 0.0 1.0 0.00 0.01 0.00 82 1016.8
20190916042204 59 184 0.0 0.0 0.00 0.01 0.00 83 1016.7
20190916041705 59 184 0.0 0.0 0.00 0.01 0.00 82 1016.7
20190916041205 59 184 0.0 0.0 0.00 0.01 0.00 82 1016.8
20190916040704 59 184 0.0 0.0 0.00 0.01 0.00 82 1016.7
20190916040205 59 184 0.0 0.0 0.00 0.01 0.01 82 1016.7
20190916035704 59 184 0.0 1.0 0.00 0.01 0.01 81 1016.7
20190916035205 59 184 0.0 1.0 0.00 0.01 0.01 81 1016.6
20190916034705 59 184 0.0 1.0 0.00 0.01 0.01 81 1016.6
20190916034204 59 184 0.0 0.0 0.00 0.01 0.01 82 1016.6
20190916033704 59 184 0.0 1.0 0.00 0.01 0.01 83 1016.7
20190916033205 59 184 0.0 1.0 0.00 0.01 0.01 82 1016.6
20190916032704 59 184 0.0 1.0 0.00 0.01 0.01 83 1016.6
20190916032204 59 184 0.0 1.0 0.00 0.01 0.01 83 1016.7
20190916031705 59 184 0.0 1.0 0.00 0.01 0.01 83 1016.6
20190916031204 59 184 0.0 0.0 0.00 0.01 0.01 83 1016.6
20190916030704 59 184 0.0 0.0 0.00 0.01 0.01 83 1016.5
20190916030205 59 184 0.0 0.0 0.00 0.01 0.01 82 1016.5
20190916025705 60 184 0.0 0.0 0.00 0.01 0.01 82 1016.4
20190916025204 60 184 0.0 1.0 0.00 0.01 0.01 82 1016.4
20190916024705 60 184 0.0 1.0 0.00 0.01 0.01 80 1016.3
20190916024204 61 184 0.0 1.0 0.00 0.01 0.01 80 1016.4
20190916023704 61 184 0.0 1.0 0.00 0.01 0.01 80 1016.3
20190916023205 61 184 0.0 1.0 0.00 0.01 0.01 80 1016.4
20190916022705 60 184 0.0 1.0 0.00 0.01 0.01 81 1016.4
20190916022205 60 184 0.0 0.0 0.00 0.01 0.01 81 1016.5
20190916021705 60 184 0.0 0.0 0.00 0.01 0.01 81 1016.4
20190916021205 60 184 0.0 0.0 0.00 0.01 0.01 80 1016.4
20190916020704 60 184 0.0 0.0 0.00 0.01 0.01 80 1016.4
20190916020204 61 184 0.0 0.0 0.00 0.01 0.01 80 1016.4
20190916015704 61 184 0.0 0.0 0.00 0.01 0.01 79 1016.3
20190916015205 61 184 0.0 0.0 0.00 0.01 0.01 79 1016.3
20190916014704 61 184 0.0 0.0 0.00 0.01 0.01 79 1016.3
20190916014205 62 184 0.0 0.0 0.00 0.01 0.01 78 1016.3
20190916013704 62 184 0.0 0.0 0.00 0.01 0.01 77 1016.3
20190916013204 62 184 0.0 0.0 0.00 0.01 0.01 76 1016.3
20190916012704 62 184 0.0 0.0 0.00 0.01 0.01 76 1016.3
20190916012205 63 184 0.0 0.0 0.00 0.01 0.01 75 1016.3
20190916011705 63 184 0.0 0.0 0.00 0.01 0.01 75 1016.3
20190916011204 64 184 0.0 0.0 0.00 0.01 0.01 73 1016.3
20190916010705 64 184 0.0 0.0 0.00 0.01 0.01 74 1016.3
20190916010204 63 184 0.0 0.0 0.00 0.01 0.01 74 1016.3
20190916005704 63 184 0.0 0.0 0.00 0.01 0.01 75 1016.2
20190916005205 63 184 0.0 0.0 0.00 0.01 0.01 75 1016.3
20190916004705 63 184 0.0 0.0 0.00 0.01 0.01 75 1016.3
20190916004204 64 184 0.0 0.0 0.00 0.01 0.01 74 1016.4
20190916003704 64 184 0.0 0.0 0.00 0.01 0.01 75 1016.3
20190916003204 64 184 0.0 0.0 0.00 0.01 0.01 74 1016.2
20190916002705 65 184 0.0 0.0 0.00 0.01 0.01 74 1016.3
20190916002204 65 184 0.0 0.0 0.00 0.01 0.01 73 1016.4
20190916001704 65 184 0.0 0.0 0.00 0.01 0.01 71 1016.4
20190916001205 66 184 0.0 0.0 0.00 0.01 0.01 71 1016.4
20190916000704 66 184 0.0 0.0 0.00 0.01 0.01 70 1016.4
20190916000205 67 184 0.0 0.0 0.00 0.01 0.01 70 1016.4
20190915235704 67 184 0.0 0.0 0.00 0.01 0.01 70 1016.5
20190915235205 67 184 0.0 0.0 0.00 0.01 0.01 69 1016.5
20190915234704 67 184 0.0 0.0 0.00 0.01 0.01 69 1016.5
20190915234205 68 184 0.0 0.0 0.00 0.01 0.01 69 1016.3
20190915233704 68 184 0.0 0.0 0.00 0.01 0.01 69 1016.0
20190915233204 68 184 0.0 0.0 0.00 0.01 0.01 67 1015.6
20190915232705 69 184 0.0 0.0 0.00 0.01 0.01 67 1015.6
20190915232205 69 184 0.0 0.0 0.00 0.01 0.01 66 1015.7
20190915231704 69 184 0.0 0.0 0.00 0.01 0.01 65 1016.0
20190915231205 70 184 0.0 0.0 0.00 0.01 0.01 64 1016.0
20190915230705 70 184 0.0 0.0 0.00 0.01 0.01 63 1016.1
20190915230205 70 184 0.0 0.0 0.00 0.01 0.01 61 1016.2
20190915225704 71 184 0.0 1.0 0.00 0.01 0.01 61 1016.2
20190915225205 71 184 0.0 3.0 0.00 0.01 0.01 60 1016.3
20190915224705 71 184 0.0 3.0 0.00 0.01 0.01 60 1016.4
20190915224205 71 184 0.0 4.0 0.00 0.01 0.01 60 1016.4
20190915223705 71 321 0.0 4.0 0.00 0.01 0.01 59 1016.5
20190915223204 71 321 1.0 4.0 0.00 0.01 0.01 58 1016.6
20190915222704 72 302 0.0 1.0 0.00 0.01 0.01 58 1016.7
20190915222205 72 287 0.0 1.0 0.00 0.01 0.01 58 1016.8
20190915221705 72 287 0.0 2.0 0.00 0.01 0.01 58 1016.5
20190915221204 72 287 0.0 3.0 0.00 0.01 0.01 57 1016.5
20190915220704 72 287 1.0 3.0 0.00 0.01 0.01 57 1016.6
20190915220204 72 278 1.0 4.0 0.00 0.01 0.01 57 1016.8
20190915215705 72 320 1.0 4.0 0.00 0.01 0.01 57 1016.7
20190915215205 73 243 1.0 4.0 0.00 0.01 0.01 57 1016.6
20190915214704 73 252 1.0 1.0 0.00 0.01 0.01 57 1016.5
20190915214205 73 297 0.0 3.0 0.00 0.01 0.01 57 1016.4
20190915213704 74 262 1.0 4.0 0.00 0.01 0.01 56 1016.4
20190915213205 74 255 1.0 4.0 0.00 0.01 0.01 54 1016.4
20190915212705 74 337 1.0 4.0 0.00 0.01 0.01 54 1016.3
20190915212205 74 293 1.0 4.0 0.00 0.01 0.01 54 1016.2
20190915211704 74 226 1.0 4.0 0.00 0.01 0.01 54 1016.1
20190915211205 75 316 1.0 4.0 0.00 0.01 0.01 53 1016.1
20190915210705 75 331 1.0 4.0 0.00 0.01 0.01 52 1016.0
20190915210204 75 30 1.0 4.0 0.00 0.01 0.01 52 1016.0
20190915205704 76 252 1.0 4.0 0.00 0.01 0.01 52 1016.1
20190915205205 77 327 1.0 3.0 0.00 0.01 0.01 52 1016.2
20190915204704 77 307 1.0 2.0 0.00 0.01 0.01 52 1016.1
20190915204205 77 289 1.0 3.0 0.00 0.01 0.01 52 1016.1
20190915203704 77 4 1.0 3.0 0.00 0.01 0.01 50 1016.1
20190915203205 77 131 1.0 4.0 0.00 0.01 0.01 49 1016.1
20190915202704 77 264 1.0 4.0 0.00 0.01 0.01 50 1016.1
20190915202205 77 231 1.0 4.0 0.00 0.01 0.01 49 1016.1